Home   Weather   Unst   Past weeks
Flag for United Kingdom

Past Weather in Unst, Scotland, United Kingdom — Yesterday and Last 2 Weeks

Now
52 °F

Fog.


Feels Like: 49 °F
Forecast: 55 / 52 °F
Wind: 8 mph from West

Location: Lerwick
Current Time: Sep 19, 2020 at 1:46:55 am
Latest Report: Sep 19, 2020 at 1:00 am
Visibility: 0 mi
Pressure30.37 "Hg
Humidity: 100%
Dew Point: 52 °F
Location of UnstLocation

Past Weather in Unst — Graph

°F

Unst Temperature Yesterday

Maximum temperature yesterday: 57 °F (at 3:00 pm)
Minimum temperature yesterday: 52 °F (at 8:00 pm)
Average temperature yesterday: 54 °F

High & Low Weather Summary for the Past Weeks

 TemperatureHumidityPressure
High58 °F (Sep 17, 5:00 pm)100% (Sep 14, 12:00 am)30.53 "Hg (Sep 14, 12:00 am)
Low45 °F (Sep 10, 5:00 am)60% (Sep 6, 3:00 pm)29.29 "Hg (Sep 11, 11:00 am)
Average52 °F89%29.88 "Hg
* Reported Sep 4 12:00 am — Sep 19 12:00 am, Unst. Weather by CustomWeather, © 2020

Note: Actual official high and low records may vary slightly from our data, if they occured in-between our weather recording intervals... More about our weather records

Unst Weather History for the Previous 24 Hours

Scroll right to see more
 ConditionsComfort  
Time TempWeatherWind HumidityBarometerVisibility
12:00 am
Sat, Sep 19
52 °FFog.6 mph99%30.38 "Hg0 mi
11:00 pm
Fri, Sep 18
52 °FFog.5 mph100%30.38 "Hg0 mi
10:00 pm52 °FFog.3 mph100%30.39 "Hg0 mi
9:00 pm52 °FDrizzle. Low clouds.8 mph100%30.39 "Hg1 mi
8:00 pm52 °FFog.5 mph100%30.39 "Hg0 mi
7:00 pm52 °FFog.9 mph100%30.38 "Hg1 mi
6:00 pm53 °FFog.13 mph97%30.37 "Hg7 mi
5:00 pm53 °FFog.13 mph100%30.37 "Hg0 mi
4:00 pm56 °FLow clouds.10 mph95%30.37 "Hg7 mi
3:00 pm57 °FLow clouds.8 mph89%30.37 "Hg47 mi
2:00 pm55 °FLow clouds.9 mph95%30.37 "Hg28 mi
1:00 pm57 °FLow clouds.13 mph92%30.36 "Hg22 mi
12:00 pm55 °FLow clouds.12 mph95%30.36 "Hg16 mi
11:00 am55 °FPartly sunny.16 mph94%30.35 "Hg22 mi
10:00 am55 °FLow clouds.17 mph96%30.34 "Hg12 mi
9:00 am54 °FPartly sunny.24 mph99%30.31 "Hg7 mi
8:00 am54 °FFog.22 mph100%30.31 "Hg4 mi
7:00 am54 °FFog.18 mph100%30.30 "Hg2 mi
6:00 am54 °FFog.20 mph100%30.29 "Hg2 mi
5:00 am54 °FFog.23 mph100%30.29 "Hg0 mi
4:00 am55 °FFog.23 mph100%30.29 "Hg0 mi
3:00 am55 °FFog.22 mph98%30.29 "Hg4 mi
2:00 am55 °FLow clouds.23 mph96%30.28 "Hg6 mi
1:00 am55 °FLow clouds.21 mph96%30.28 "Hg9 mi
Weather by CustomWeather, © 2020

See weather overview